owner,sensor,date,latitude,longitude,vertical_datum,sea_water_practical_salinity,qcFlag 
ENP,ioos.station.NOAA.NDBC:BOBF1:1,2019-10-01T00:00:00Z,25.0270,-80.6810,1.5,41.57,11111222 
ENP,ioos.station.NOAA.NDBC:BOBF1:1,2019-10-01T02:00:00Z,25.0270,-80.6810,1.5,41.57,11111222 
ENP,ioos.station.NOAA.NDBC:BOBF1:1,2019-10-01T04:00:00Z,25.0270,-80.6810,1.5,41.45,11111222 
ENP,ioos.station.NOAA.NDBC:BOBF1:1,2019-10-01T05:00:00Z,25.0270,-80.6810,1.5,41.54,11111222 
ENP,ioos.station.NOAA.NDBC:BOBF1:1,2019-10-01T06:00:00Z,25.0270,-80.6810,1.5,41.41,11111222 
ENP,ioos.station.NOAA.NDBC:BOBF1:1,2019-10-01T07:00:00Z,25.0270,-80.6810,1.5,41.29,11111222 
ENP,ioos.station.NOAA.NDBC:BOBF1:1,2019-10-01T08:00:00Z,25.0270,-80.6810,1.5,41.08,11111222 
ENP,ioos.station.NOAA.NDBC:BOBF1:1,2019-10-01T09:00:00Z,25.0270,-80.6810,1.5,41.2,11111222 
ENP,ioos.station.NOAA.NDBC:BOBF1:1,2019-10-01T10:00:00Z,25.0270,-80.6810,1.5,41.39,11111222 
ENP,ioos.station.NOAA.NDBC:BOBF1:1,2019-10-01T11:00:00Z,25.0270,-80.6810,1.5,41.58,11111222 
ENP,ioos.station.NOAA.NDBC:BOBF1:1,2019-10-01T12:00:00Z,25.0270,-80.6810,1.5,39.18,11111222 
ENP,ioos.station.NOAA.NDBC:BOBF1:1,2019-10-01T13:00:00Z,25.0270,-80.6810,1.5,41.67,11111222 
ENP,ioos.station.NOAA.NDBC:BOBF1:1,2019-10-01T14:00:00Z,25.0270,-80.6810,1.5,41.58,11111222 
ENP,ioos.station.NOAA.NDBC:BOBF1:1,2019-10-01T15:00:00Z,25.0270,-80.6810,1.5,41.56,11111222 
ENP,ioos.station.NOAA.NDBC:BOBF1:1,2019-10-01T17:00:00Z,25.0270,-80.6810,1.5,41.58,11111222 
ENP,ioos.station.NOAA.NDBC:BOBF1:1,2019-10-01T18:00:00Z,25.0270,-80.6810,1.5,40.62,11111222 
ENP,ioos.station.NOAA.NDBC:BOBF1:1,2019-10-01T19:00:00Z,25.0270,-80.6810,1.5,40.3,11111222 
ENP,ioos.station.NOAA.NDBC:BOBF1:1,2019-10-01T20:00:00Z,25.0270,-80.6810,1.5,41.17,11111222 
ENP,ioos.station.NOAA.NDBC:BOBF1:1,2019-10-01T21:00:00Z,25.0270,-80.6810,1.5,41.01,11111222 
ENP,ioos.station.NOAA.NDBC:BOBF1:1,2019-10-01T22:00:00Z,25.0270,-80.6810,1.5,41.29,11111222 
ENP,ioos.station.NOAA.NDBC:BOBF1:1,2019-10-01T23:00:00Z,25.0270,-80.6810,1.5,41.29,11111222 
ENP,ioos.station.NOAA.NDBC:BOBF1:1,2019-10-02T00:00:00Z,25.0270,-80.6810,1.5,41.64,11111222 
ENP,ioos.station.NOAA.NDBC:BOBF1:1,2019-10-02T02:00:00Z,25.0270,-80.6810,1.5,41.4,11111222 
ENP,ioos.station.NOAA.NDBC:BOBF1:1,2019-10-02T04:00:00Z,25.0270,-80.6810,1.5,41.33,11111222 
ENP,ioos.station.NOAA.NDBC:BOBF1:1,2019-10-02T05:00:00Z,25.0270,-80.6810,1.5,41.29,11111222 
ENP,ioos.station.NOAA.NDBC:BOBF1:1,2019-10-02T06:00:00Z,25.0270,-80.6810,1.5,41.3,11111222 
ENP,ioos.station.NOAA.NDBC:BOBF1:1,2019-10-02T07:00:00Z,25.0270,-80.6810,1.5,41.22,11111222 
ENP,ioos.station.NOAA.NDBC:BOBF1:1,2019-10-02T08:00:00Z,25.0270,-80.6810,1.5,41.24,11111222 
ENP,ioos.station.NOAA.NDBC:BOBF1:1,2019-10-02T09:00:00Z,25.0270,-80.6810,1.5,41.16,11111222 
ENP,ioos.station.NOAA.NDBC:BOBF1:1,2019-10-02T10:00:00Z,25.0270,-80.6810,1.5,41.04,11111222 
ENP,ioos.station.NOAA.NDBC:BOBF1:1,2019-10-02T11:00:00Z,25.0270,-80.6810,1.5,41.17,11111222 
ENP,ioos.station.NOAA.NDBC:BOBF1:1,2019-10-02T12:00:00Z,25.0270,-80.6810,1.5,41.39,11111222 
ENP,ioos.station.NOAA.NDBC:BOBF1:1,2019-10-02T13:00:00Z,25.0270,-80.6810,1.5,41.31,11111222 
ENP,ioos.station.NOAA.NDBC:BOBF1:1,2019-10-02T14:00:00Z,25.0270,-80.6810,1.5,41.22,11111222 
ENP,ioos.station.NOAA.NDBC:BOBF1:1,2019-10-02T15:00:00Z,25.0270,-80.6810,1.5,40.9,11111222 
ENP,ioos.station.NOAA.NDBC:BOBF1:1,2019-10-02T17:00:00Z,25.0270,-80.6810,1.5,40.55,11111222 
ENP,ioos.station.NOAA.NDBC:BOBF1:1,2019-10-02T18:00:00Z,25.0270,-80.6810,1.5,40.6,11111222 
ENP,ioos.station.NOAA.NDBC:BOBF1:1,2019-10-02T19:00:00Z,25.0270,-80.6810,1.5,40.57,11111222 
ENP,ioos.station.NOAA.NDBC:BOBF1:1,2019-10-02T20:00:00Z,25.0270,-80.6810,1.5,40.55,11111222 
ENP,ioos.station.NOAA.NDBC:BOBF1:1,2019-10-02T21:00:00Z,25.0270,-80.6810,1.5,40.73,11111222 
ENP,ioos.station.NOAA.NDBC:BOBF1:1,2019-10-02T22:00:00Z,25.0270,-80.6810,1.5,40.64,11111222 
ENP,ioos.station.NOAA.NDBC:BOBF1:1,2019-10-02T23:00:00Z,25.0270,-80.6810,1.5,40.49,11111222 
ENP,ioos.station.NOAA.NDBC:BOBF1:1,2019-10-03T04:00:00Z,25.0270,-80.6810,1.5,40.36,11111222 
ENP,ioos.station.NOAA.NDBC:BOBF1:1,2019-10-03T05:00:00Z,25.0270,-80.6810,1.5,40.15,11111222 
ENP,ioos.station.NOAA.NDBC:BOBF1:1,2019-10-03T17:00:00Z,25.0270,-80.6810,1.5,39.93,11111222 
ENP,ioos.station.NOAA.NDBC:BOBF1:1,2019-10-03T18:00:00Z,25.0270,-80.6810,1.5,38.69,11111222 
ENP,ioos.station.NOAA.NDBC:BOBF1:1,2019-10-03T19:00:00Z,25.0270,-80.6810,1.5,38.92,11111222 
ENP,ioos.station.NOAA.NDBC:BOBF1:1,2019-10-03T20:00:00Z,25.0270,-80.6810,1.5,38.75,11111222 
ENP,ioos.station.NOAA.NDBC:BOBF1:1,2019-10-03T21:00:00Z,25.0270,-80.6810,1.5,38.71,11111222 
ENP,ioos.station.NOAA.NDBC:BOBF1:1,2019-10-03T22:00:00Z,25.0270,-80.6810,1.5,38.88,11111222 
ENP,ioos.station.NOAA.NDBC:BOBF1:1,2019-10-03T23:00:00Z,25.0270,-80.6810,1.5,39.28,11111222 
ENP,ioos.station.NOAA.NDBC:BOBF1:1,2019-10-04T00:00:00Z,25.0270,-80.6810,1.5,39.5,11111222 
ENP,ioos.station.NOAA.NDBC:BOBF1:1,2019-10-04T02:00:00Z,25.0270,-80.6810,1.5,40.22,11111222 
ENP,ioos.station.NOAA.NDBC:BOBF1:1,2019-10-04T04:00:00Z,25.0270,-80.6810,1.5,40.11,11111222 
ENP,ioos.station.NOAA.NDBC:BOBF1:1,2019-10-04T05:00:00Z,25.0270,-80.6810,1.5,40.08,11111222 
ENP,ioos.station.NOAA.NDBC:BOBF1:1,2019-10-04T06:00:00Z,25.0270,-80.6810,1.5,39.76,11111222 
ENP,ioos.station.NOAA.NDBC:BOBF1:1,2019-10-04T07:00:00Z,25.0270,-80.6810,1.5,39.29,11111222 
ENP,ioos.station.NOAA.NDBC:BOBF1:1,2019-10-04T08:00:00Z,25.0270,-80.6810,1.5,39.11,11111222 
ENP,ioos.station.NOAA.NDBC:BOBF1:1,2019-10-04T09:00:00Z,25.0270,-80.6810,1.5,38.79,11111222 
ENP,ioos.station.NOAA.NDBC:BOBF1:1,2019-10-04T10:00:00Z,25.0270,-80.6810,1.5,38.62,11111222 
ENP,ioos.station.NOAA.NDBC:BOBF1:1,2019-10-04T11:00:00Z,25.0270,-80.6810,1.5,38.6,11111222 
ENP,ioos.station.NOAA.NDBC:BOBF1:1,2019-10-04T12:00:00Z,25.0270,-80.6810,1.5,38.63,11111222 
ENP,ioos.station.NOAA.NDBC:BOBF1:1,2019-10-04T13:00:00Z,25.0270,-80.6810,1.5,38.88,11111222 
ENP,ioos.station.NOAA.NDBC:BOBF1:1,2019-10-04T14:00:00Z,25.0270,-80.6810,1.5,38.98,11111222 
ENP,ioos.station.NOAA.NDBC:BOBF1:1,2019-10-04T15:00:00Z,25.0270,-80.6810,1.5,39.17,11111222 
ENP,ioos.station.NOAA.NDBC:BOBF1:1,2019-10-04T16:00:00Z,25.0270,-80.6810,1.5,39.15,11111222 
ENP,ioos.station.NOAA.NDBC:BOBF1:1,2019-10-04T17:00:00Z,25.0270,-80.6810,1.5,39.25,11111222 
ENP,ioos.station.NOAA.NDBC:BOBF1:1,2019-10-04T18:00:00Z,25.0270,-80.6810,1.5,39.21,11111222 
ENP,ioos.station.NOAA.NDBC:BOBF1:1,2019-10-04T19:00:00Z,25.0270,-80.6810,1.5,35.62,11111222 
ENP,ioos.station.NOAA.NDBC:BOBF1:1,2019-10-04T20:00:00Z,25.0270,-80.6810,1.5,38.26,11111222 
ENP,ioos.station.NOAA.NDBC:BOBF1:1,2019-10-04T22:00:00Z,25.0270,-80.6810,1.5,39.39,11111222 
ENP,ioos.station.NOAA.NDBC:BOBF1:1,2019-10-04T23:00:00Z,25.0270,-80.6810,1.5,39.38,11111222 
ENP,ioos.station.NOAA.NDBC:BOBF1:1,2019-10-05T00:00:00Z,25.0270,-80.6810,1.5,39.39,11111222 
ENP,ioos.station.NOAA.NDBC:BOBF1:1,2019-10-05T02:00:00Z,25.0270,-80.6810,1.5,39.67,11111222 
ENP,ioos.station.NOAA.NDBC:BOBF1:1,2019-10-05T04:00:00Z,25.0270,-80.6810,1.5,39.96,11111222 
ENP,ioos.station.NOAA.NDBC:BOBF1:1,2019-10-05T05:00:00Z,25.0270,-80.6810,1.5,39.98,11111222 
ENP,ioos.station.NOAA.NDBC:BOBF1:1,2019-10-05T06:00:00Z,25.0270,-80.6810,1.5,39.84,11111222 
ENP,ioos.station.NOAA.NDBC:BOBF1:1,2019-10-05T07:00:00Z,25.0270,-80.6810,1.5,39.61,11111222 
ENP,ioos.station.NOAA.NDBC:BOBF1:1,2019-10-05T08:00:00Z,25.0270,-80.6810,1.5,39.47,11111222 
ENP,ioos.station.NOAA.NDBC:BOBF1:1,2019-10-05T09:00:00Z,25.0270,-80.6810,1.5,39.14,11111222 
ENP,ioos.station.NOAA.NDBC:BOBF1:1,2019-10-05T10:00:00Z,25.0270,-80.6810,1.5,39.05,11111222 
ENP,ioos.station.NOAA.NDBC:BOBF1:1,2019-10-05T11:00:00Z,25.0270,-80.6810,1.5,39.02,11111222 
ENP,ioos.station.NOAA.NDBC:BOBF1:1,2019-10-05T12:00:00Z,25.0270,-80.6810,1.5,38.97,11111222 
ENP,ioos.station.NOAA.NDBC:BOBF1:1,2019-10-05T13:00:00Z,25.0270,-80.6810,1.5,39.02,11111222 
ENP,ioos.station.NOAA.NDBC:BOBF1:1,2019-10-05T14:00:00Z,25.0270,-80.6810,1.5,39.24,11111222 
ENP,ioos.station.NOAA.NDBC:BOBF1:1,2019-10-05T15:00:00Z,25.0270,-80.6810,1.5,39.3,11111222 
ENP,ioos.station.NOAA.NDBC:BOBF1:1,2019-10-05T16:00:00Z,25.0270,-80.6810,1.5,39.35,11111222 
ENP,ioos.station.NOAA.NDBC:BOBF1:1,2019-10-05T17:00:00Z,25.0270,-80.6810,1.5,39.32,11111222 
ENP,ioos.station.NOAA.NDBC:BOBF1:1,2019-10-05T18:00:00Z,25.0270,-80.6810,1.5,39.5,11111222 
ENP,ioos.station.NOAA.NDBC:BOBF1:1,2019-10-05T19:00:00Z,25.0270,-80.6810,1.5,39.69,11111222 
ENP,ioos.station.NOAA.NDBC:BOBF1:1,2019-10-05T20:00:00Z,25.0270,-80.6810,1.5,39.8,11111222 
ENP,ioos.station.NOAA.NDBC:BOBF1:1,2019-10-05T21:00:00Z,25.0270,-80.6810,1.5,39.81,11111222 
ENP,ioos.station.NOAA.NDBC:BOBF1:1,2019-10-05T22:00:00Z,25.0270,-80.6810,1.5,39.71,11111222 
ENP,ioos.station.NOAA.NDBC:BOBF1:1,2019-10-05T23:00:00Z,25.0270,-80.6810,1.5,39.81,11111222 
ENP,ioos.station.NOAA.NDBC:BOBF1:1,2019-10-06T00:00:00Z,25.0270,-80.6810,1.5,39.87,11111222 
ENP,ioos.station.NOAA.NDBC:BOBF1:1,2019-10-06T01:00:00Z,25.0270,-80.6810,1.5,39.84,11111222 
ENP,ioos.station.NOAA.NDBC:BOBF1:1,2019-10-06T02:00:00Z,25.0270,-80.6810,1.5,39.9,11111222 
ENP,ioos.station.NOAA.NDBC:BOBF1:1,2019-10-06T04:00:00Z,25.0270,-80.6810,1.5,40.33,11111222 
ENP,ioos.station.NOAA.NDBC:BOBF1:1,2019-10-06T05:00:00Z,25.0270,-80.6810,1.5,40.42,11111222 
ENP,ioos.station.NOAA.NDBC:BOBF1:1,2019-10-06T06:00:00Z,25.0270,-80.6810,1.5,40.34,11111222 
ENP,ioos.station.NOAA.NDBC:BOBF1:1,2019-10-06T07:00:00Z,25.0270,-80.6810,1.5,40.24,11111222 
ENP,ioos.station.NOAA.NDBC:BOBF1:1,2019-10-06T08:00:00Z,25.0270,-80.6810,1.5,40.15,11111222 
ENP,ioos.station.NOAA.NDBC:BOBF1:1,2019-10-06T09:00:00Z,25.0270,-80.6810,1.5,39.53,11111222 
ENP,ioos.station.NOAA.NDBC:BOBF1:1,2019-10-06T10:00:00Z,25.0270,-80.6810,1.5,38.86,11111222 
ENP,ioos.station.NOAA.NDBC:BOBF1:1,2019-10-06T11:00:00Z,25.0270,-80.6810,1.5,38.48,11111222 
ENP,ioos.station.NOAA.NDBC:BOBF1:1,2019-10-06T12:00:00Z,25.0270,-80.6810,1.5,38.47,11111222 
ENP,ioos.station.NOAA.NDBC:BOBF1:1,2019-10-06T13:00:00Z,25.0270,-80.6810,1.5,38.42,11111222 
ENP,ioos.station.NOAA.NDBC:BOBF1:1,2019-10-06T14:00:00Z,25.0270,-80.6810,1.5,37.29,11111222 
ENP,ioos.station.NOAA.NDBC:BOBF1:1,2019-10-06T15:00:00Z,25.0270,-80.6810,1.5,36.76,11111222 
ENP,ioos.station.NOAA.NDBC:BOBF1:1,2019-10-06T16:00:00Z,25.0270,-80.6810,1.5,38.69,11111222 
ENP,ioos.station.NOAA.NDBC:BOBF1:1,2019-10-06T17:00:00Z,25.0270,-80.6810,1.5,39.51,11111222 
ENP,ioos.station.NOAA.NDBC:BOBF1:1,2019-10-06T18:00:00Z,25.0270,-80.6810,1.5,39.85,11111222 
ENP,ioos.station.NOAA.NDBC:BOBF1:1,2019-10-06T19:00:00Z,25.0270,-80.6810,1.5,39.66,11111222 
ENP,ioos.station.NOAA.NDBC:BOBF1:1,2019-10-06T20:00:00Z,25.0270,-80.6810,1.5,39.45,11111222 
ENP,ioos.station.NOAA.NDBC:BOBF1:1,2019-10-06T21:00:00Z,25.0270,-80.6810,1.5,39.32,11111222 
ENP,ioos.station.NOAA.NDBC:BOBF1:1,2019-10-06T22:00:00Z,25.0270,-80.6810,1.5,39.19,11111222 
ENP,ioos.station.NOAA.NDBC:BOBF1:1,2019-10-06T23:00:00Z,25.0270,-80.6810,1.5,38.9,11111222 
ENP,ioos.station.NOAA.NDBC:BOBF1:1,2019-10-07T00:00:00Z,25.0270,-80.6810,1.5,38.74,11111222 
ENP,ioos.station.NOAA.NDBC:BOBF1:1,2019-10-07T01:00:00Z,25.0270,-80.6810,1.5,38.81,11111222 
ENP,ioos.station.NOAA.NDBC:BOBF1:1,2019-10-07T02:00:00Z,25.0270,-80.6810,1.5,38.87,11111222 
ENP,ioos.station.NOAA.NDBC:BOBF1:1,2019-10-07T04:00:00Z,25.0270,-80.6810,1.5,38.99,11111222 
ENP,ioos.station.NOAA.NDBC:BOBF1:1,2019-10-07T05:00:00Z,25.0270,-80.6810,1.5,38.99,11111222 
ENP,ioos.station.NOAA.NDBC:BOBF1:1,2019-10-07T06:00:00Z,25.0270,-80.6810,1.5,39.05,11111222 
ENP,ioos.station.NOAA.NDBC:BOBF1:1,2019-10-07T07:00:00Z,25.0270,-80.6810,1.5,39.15,11111222 
ENP,ioos.station.NOAA.NDBC:BOBF1:1,2019-10-07T08:00:00Z,25.0270,-80.6810,1.5,38.15,11111222 
ENP,ioos.station.NOAA.NDBC:BOBF1:1,2019-10-07T09:00:00Z,25.0270,-80.6810,1.5,37.91,11111222 
ENP,ioos.station.NOAA.NDBC:BOBF1:1,2019-10-07T10:00:00Z,25.0270,-80.6810,1.5,37.91,11111222 
ENP,ioos.station.NOAA.NDBC:BOBF1:1,2019-10-07T11:00:00Z,25.0270,-80.6810,1.5,38.1,11111222 
ENP,ioos.station.NOAA.NDBC:BOBF1:1,2019-10-07T12:00:00Z,25.0270,-80.6810,1.5,37.36,11111222 
ENP,ioos.station.NOAA.NDBC:BOBF1:1,2019-10-07T14:00:00Z,25.0270,-80.6810,1.5,37.74,11111222 
ENP,ioos.station.NOAA.NDBC:BOBF1:1,2019-10-07T15:00:00Z,25.0270,-80.6810,1.5,37.74,11111222 
ENP,ioos.station.NOAA.NDBC:BOBF1:1,2019-10-07T16:00:00Z,25.0270,-80.6810,1.5,37.74,11111222 
ENP,ioos.station.NOAA.NDBC:BOBF1:1,2019-10-07T17:00:00Z,25.0270,-80.6810,1.5,37.62,11111222 
ENP,ioos.station.NOAA.NDBC:BOBF1:1,2019-10-07T18:00:00Z,25.0270,-80.6810,1.5,34.69,11111222 
ENP,ioos.station.NOAA.NDBC:BOBF1:1,2019-10-07T19:00:00Z,25.0270,-80.6810,1.5,37.55,11111222 
ENP,ioos.station.NOAA.NDBC:BOBF1:1,2019-10-07T20:00:00Z,25.0270,-80.6810,1.5,37.17,11111222 
ENP,ioos.station.NOAA.NDBC:BOBF1:1,2019-10-07T21:00:00Z,25.0270,-80.6810,1.5,36.93,11111222 
ENP,ioos.station.NOAA.NDBC:BOBF1:1,2019-10-07T23:00:00Z,25.0270,-80.6810,1.5,37.83,11111222 
ENP,ioos.station.NOAA.NDBC:BOBF1:1,2019-10-08T02:00:00Z,25.0270,-80.6810,1.5,36.96,11111222 
ENP,ioos.station.NOAA.NDBC:BOBF1:1,2019-10-08T04:00:00Z,25.0270,-80.6810,1.5,36.66,11111222 
ENP,ioos.station.NOAA.NDBC:BOBF1:1,2019-10-08T06:00:00Z,25.0270,-80.6810,1.5,36.1,11111222 
ENP,ioos.station.NOAA.NDBC:BOBF1:1,2019-10-08T07:00:00Z,25.0270,-80.6810,1.5,35.95,11111222 
ENP,ioos.station.NOAA.NDBC:BOBF1:1,2019-10-08T08:00:00Z,25.0270,-80.6810,1.5,36.73,11111222 
ENP,ioos.station.NOAA.NDBC:BOBF1:1,2019-10-08T09:00:00Z,25.0270,-80.6810,1.5,36.65,11111222 
ENP,ioos.station.NOAA.NDBC:BOBF1:1,2019-10-08T10:00:00Z,25.0270,-80.6810,1.5,36.9,11111222 
ENP,ioos.station.NOAA.NDBC:BOBF1:1,2019-10-08T11:00:00Z,25.0270,-80.6810,1.5,36.74,11111222 
ENP,ioos.station.NOAA.NDBC:BOBF1:1,2019-10-08T12:00:00Z,25.0270,-80.6810,1.5,36.66,11111222 
ENP,ioos.station.NOAA.NDBC:BOBF1:1,2019-10-08T14:00:00Z,25.0270,-80.6810,1.5,35.54,11111222 
ENP,ioos.station.NOAA.NDBC:BOBF1:1,2019-10-08T15:00:00Z,25.0270,-80.6810,1.5,33.32,11111222 
ENP,ioos.station.NOAA.NDBC:BOBF1:1,2019-10-08T16:00:00Z,25.0270,-80.6810,1.5,30.35,11111222 
ENP,ioos.station.NOAA.NDBC:BOBF1:1,2019-10-08T17:00:00Z,25.0270,-80.6810,1.5,30.84,11111222 
ENP,ioos.station.NOAA.NDBC:BOBF1:1,2019-10-08T18:00:00Z,25.0270,-80.6810,1.5,35.48,11111222 
ENP,ioos.station.NOAA.NDBC:BOBF1:1,2019-10-08T19:00:00Z,25.0270,-80.6810,1.5,35.82,11111222 
ENP,ioos.station.NOAA.NDBC:BOBF1:1,2019-10-08T20:00:00Z,25.0270,-80.6810,1.5,34.98,11111222 
ENP,ioos.station.NOAA.NDBC:BOBF1:1,2019-10-08T21:00:00Z,25.0270,-80.6810,1.5,34.58,11111222 
ENP,ioos.station.NOAA.NDBC:BOBF1:1,2019-10-08T22:00:00Z,25.0270,-80.6810,1.5,33.52,11111222 
ENP,ioos.station.NOAA.NDBC:BOBF1:1,2019-10-08T23:00:00Z,25.0270,-80.6810,1.5,36.99,11111222 
ENP,ioos.station.NOAA.NDBC:BOBF1:1,2019-10-09T00:00:00Z,25.0270,-80.6810,1.5,37.04,11111222 
ENP,ioos.station.NOAA.NDBC:BOBF1:1,2019-10-09T02:00:00Z,25.0270,-80.6810,1.5,37.03,11111222 
ENP,ioos.station.NOAA.NDBC:BOBF1:1,2019-10-09T04:00:00Z,25.0270,-80.6810,1.5,37.01,11111222 
ENP,ioos.station.NOAA.NDBC:BOBF1:1,2019-10-09T05:00:00Z,25.0270,-80.6810,1.5,37.03,11111222 
ENP,ioos.station.NOAA.NDBC:BOBF1:1,2019-10-09T06:00:00Z,25.0270,-80.6810,1.5,37.21,11111222 
ENP,ioos.station.NOAA.NDBC:BOBF1:1,2019-10-09T07:00:00Z,25.0270,-80.6810,1.5,37.44,11111222 
ENP,ioos.station.NOAA.NDBC:BOBF1:1,2019-10-09T08:00:00Z,25.0270,-80.6810,1.5,37.57,11111222 
ENP,ioos.station.NOAA.NDBC:BOBF1:1,2019-10-09T09:00:00Z,25.0270,-80.6810,1.5,37.68,11111222 
ENP,ioos.station.NOAA.NDBC:BOBF1:1,2019-10-09T10:00:00Z,25.0270,-80.6810,1.5,37.84,11111222 
ENP,ioos.station.NOAA.NDBC:BOBF1:1,2019-10-09T11:00:00Z,25.0270,-80.6810,1.5,37.67,11111222 
ENP,ioos.station.NOAA.NDBC:BOBF1:1,2019-10-09T13:00:00Z,25.0270,-80.6810,1.5,37.03,11111222 
ENP,ioos.station.NOAA.NDBC:BOBF1:1,2019-10-09T14:00:00Z,25.0270,-80.6810,1.5,30.19,11111222 
ENP,ioos.station.NOAA.NDBC:BOBF1:1,2019-10-09T15:00:00Z,25.0270,-80.6810,1.5,37.45,11111222 
ENP,ioos.station.NOAA.NDBC:BOBF1:1,2019-10-09T16:00:00Z,25.0270,-80.6810,1.5,37.4,11111222 
ENP,ioos.station.NOAA.NDBC:BOBF1:1,2019-10-09T17:00:00Z,25.0270,-80.6810,1.5,30.94,11111222 
ENP,ioos.station.NOAA.NDBC:BOBF1:1,2019-10-09T18:00:00Z,25.0270,-80.6810,1.5,37.65,11111222 
ENP,ioos.station.NOAA.NDBC:BOBF1:1,2019-10-09T19:00:00Z,25.0270,-80.6810,1.5,38.09,11111222 
ENP,ioos.station.NOAA.NDBC:BOBF1:1,2019-10-09T20:00:00Z,25.0270,-80.6810,1.5,38.29,11111222 
ENP,ioos.station.NOAA.NDBC:BOBF1:1,2019-10-09T21:00:00Z,25.0270,-80.6810,1.5,33.33,11111222 
ENP,ioos.station.NOAA.NDBC:BOBF1:1,2019-10-10T00:00:00Z,25.0270,-80.6810,1.5,38.66,11111222 
ENP,ioos.station.NOAA.NDBC:BOBF1:1,2019-10-10T02:00:00Z,25.0270,-80.6810,1.5,38.82,11111222 
ENP,ioos.station.NOAA.NDBC:BOBF1:1,2019-10-10T04:00:00Z,25.0270,-80.6810,1.5,38.9,11111222 
ENP,ioos.station.NOAA.NDBC:BOBF1:1,2019-10-10T05:00:00Z,25.0270,-80.6810,1.5,38.98,11111222 
ENP,ioos.station.NOAA.NDBC:BOBF1:1,2019-10-10T06:00:00Z,25.0270,-80.6810,1.5,39.0,11111222 
ENP,ioos.station.NOAA.NDBC:BOBF1:1,2019-10-10T07:00:00Z,25.0270,-80.6810,1.5,39.08,11111222 
ENP,ioos.station.NOAA.NDBC:BOBF1:1,2019-10-10T08:00:00Z,25.0270,-80.6810,1.5,39.07,11111222 
ENP,ioos.station.NOAA.NDBC:BOBF1:1,2019-10-10T09:00:00Z,25.0270,-80.6810,1.5,39.11,11111222 
ENP,ioos.station.NOAA.NDBC:BOBF1:1,2019-10-10T10:00:00Z,25.0270,-80.6810,1.5,39.12,11111222 
ENP,ioos.station.NOAA.NDBC:BOBF1:1,2019-10-10T11:00:00Z,25.0270,-80.6810,1.5,39.05,11111222 
ENP,ioos.station.NOAA.NDBC:BOBF1:1,2019-10-10T12:00:00Z,25.0270,-80.6810,1.5,38.33,11111222 
ENP,ioos.station.NOAA.NDBC:BOBF1:1,2019-10-10T13:00:00Z,25.0270,-80.6810,1.5,38.81,11111222 
ENP,ioos.station.NOAA.NDBC:BOBF1:1,2019-10-10T15:00:00Z,25.0270,-80.6810,1.5,38.33,11111222 
ENP,ioos.station.NOAA.NDBC:BOBF1:1,2019-10-10T16:00:00Z,25.0270,-80.6810,1.5,38.41,11111222 
ENP,ioos.station.NOAA.NDBC:BOBF1:1,2019-10-10T17:00:00Z,25.0270,-80.6810,1.5,38.46,11111222 
ENP,ioos.station.NOAA.NDBC:BOBF1:1,2019-10-10T18:00:00Z,25.0270,-80.6810,1.5,38.54,11111222 
ENP,ioos.station.NOAA.NDBC:BOBF1:1,2019-10-10T19:00:00Z,25.0270,-80.6810,1.5,38.54,11111222 
ENP,ioos.station.NOAA.NDBC:BOBF1:1,2019-10-10T20:00:00Z,25.0270,-80.6810,1.5,38.54,11111222 
ENP,ioos.station.NOAA.NDBC:BOBF1:1,2019-10-10T21:00:00Z,25.0270,-80.6810,1.5,38.56,11111222 
ENP,ioos.station.NOAA.NDBC:BOBF1:1,2019-10-10T22:00:00Z,25.0270,-80.6810,1.5,38.6,11111222 
ENP,ioos.station.NOAA.NDBC:BOBF1:1,2019-10-10T23:00:00Z,25.0270,-80.6810,1.5,38.5,11111222 
ENP,ioos.station.NOAA.NDBC:BOBF1:1,2019-10-11T00:00:00Z,25.0270,-80.6810,1.5,38.54,11111222 
ENP,ioos.station.NOAA.NDBC:BOBF1:1,2019-10-11T01:00:00Z,25.0270,-80.6810,1.5,38.36,11111222 
ENP,ioos.station.NOAA.NDBC:BOBF1:1,2019-10-11T02:00:00Z,25.0270,-80.6810,1.5,38.45,11111222 
ENP,ioos.station.NOAA.NDBC:BOBF1:1,2019-10-11T04:00:00Z,25.0270,-80.6810,1.5,38.5,11111222 
ENP,ioos.station.NOAA.NDBC:BOBF1:1,2019-10-11T05:00:00Z,25.0270,-80.6810,1.5,38.36,11111222 
ENP,ioos.station.NOAA.NDBC:BOBF1:1,2019-10-11T06:00:00Z,25.0270,-80.6810,1.5,38.45,11111222 
ENP,ioos.station.NOAA.NDBC:BOBF1:1,2019-10-11T07:00:00Z,25.0270,-80.6810,1.5,38.41,11111222 
ENP,ioos.station.NOAA.NDBC:BOBF1:1,2019-10-11T08:00:00Z,25.0270,-80.6810,1.5,38.44,11111222 
ENP,ioos.station.NOAA.NDBC:BOBF1:1,2019-10-11T09:00:00Z,25.0270,-80.6810,1.5,38.64,11111222 
ENP,ioos.station.NOAA.NDBC:BOBF1:1,2019-10-11T10:00:00Z,25.0270,-80.6810,1.5,38.71,11111222 
ENP,ioos.station.NOAA.NDBC:BOBF1:1,2019-10-11T11:00:00Z,25.0270,-80.6810,1.5,38.74,11111222 
ENP,ioos.station.NOAA.NDBC:BOBF1:1,2019-10-11T12:00:00Z,25.0270,-80.6810,1.5,38.58,11111222 
ENP,ioos.station.NOAA.NDBC:BOBF1:1,2019-10-11T13:00:00Z,25.0270,-80.6810,1.5,38.42,11111222 
ENP,ioos.station.NOAA.NDBC:BOBF1:1,2019-10-11T14:00:00Z,25.0270,-80.6810,1.5,38.38,11111222 
ENP,ioos.station.NOAA.NDBC:BOBF1:1,2019-10-11T15:00:00Z,25.0270,-80.6810,1.5,38.36,11111222 
ENP,ioos.station.NOAA.NDBC:BOBF1:1,2019-10-11T16:00:00Z,25.0270,-80.6810,1.5,38.37,11111222 
ENP,ioos.station.NOAA.NDBC:BOBF1:1,2019-10-11T17:00:00Z,25.0270,-80.6810,1.5,38.37,11111222 
ENP,ioos.station.NOAA.NDBC:BOBF1:1,2019-10-11T18:00:00Z,25.0270,-80.6810,1.5,38.4,11111222 
ENP,ioos.station.NOAA.NDBC:BOBF1:1,2019-10-11T19:00:00Z,25.0270,-80.6810,1.5,38.45,11111222 
ENP,ioos.station.NOAA.NDBC:BOBF1:1,2019-10-11T20:00:00Z,25.0270,-80.6810,1.5,38.34,11111222 
ENP,ioos.station.NOAA.NDBC:BOBF1:1,2019-10-11T21:00:00Z,25.0270,-80.6810,1.5,38.37,11111222 
ENP,ioos.station.NOAA.NDBC:BOBF1:1,2019-10-11T22:00:00Z,25.0270,-80.6810,1.5,38.41,11111222 
ENP,ioos.station.NOAA.NDBC:BOBF1:1,2019-10-11T23:00:00Z,25.0270,-80.6810,1.5,38.45,11111222 
ENP,ioos.station.NOAA.NDBC:BOBF1:1,2019-10-12T00:00:00Z,25.0270,-80.6810,1.5,38.47,11111222 
ENP,ioos.station.NOAA.NDBC:BOBF1:1,2019-10-12T01:00:00Z,25.0270,-80.6810,1.5,38.52,11111222 
ENP,ioos.station.NOAA.NDBC:BOBF1:1,2019-10-12T02:00:00Z,25.0270,-80.6810,1.5,38.51,11111222 
ENP,ioos.station.NOAA.NDBC:BOBF1:1,2019-10-12T04:00:00Z,25.0270,-80.6810,1.5,38.38,11111222 
ENP,ioos.station.NOAA.NDBC:BOBF1:1,2019-10-12T05:00:00Z,25.0270,-80.6810,1.5,38.44,11111222 
ENP,ioos.station.NOAA.NDBC:BOBF1:1,2019-10-12T06:00:00Z,25.0270,-80.6810,1.5,38.48,11111222 
ENP,ioos.station.NOAA.NDBC:BOBF1:1,2019-10-12T07:00:00Z,25.0270,-80.6810,1.5,38.33,11111222 
ENP,ioos.station.NOAA.NDBC:BOBF1:1,2019-10-12T08:00:00Z,25.0270,-80.6810,1.5,38.43,11111222 
ENP,ioos.station.NOAA.NDBC:BOBF1:1,2019-10-12T09:00:00Z,25.0270,-80.6810,1.5,38.51,11111222 
ENP,ioos.station.NOAA.NDBC:BOBF1:1,2019-10-12T10:00:00Z,25.0270,-80.6810,1.5,38.44,11111222 
ENP,ioos.station.NOAA.NDBC:BOBF1:1,2019-10-12T11:00:00Z,25.0270,-80.6810,1.5,38.4,11111222 
ENP,ioos.station.NOAA.NDBC:BOBF1:1,2019-10-12T12:00:00Z,25.0270,-80.6810,1.5,38.36,11111222 
ENP,ioos.station.NOAA.NDBC:BOBF1:1,2019-10-12T13:00:00Z,25.0270,-80.6810,1.5,38.17,11111222 
ENP,ioos.station.NOAA.NDBC:BOBF1:1,2019-10-12T14:00:00Z,25.0270,-80.6810,1.5,38.25,11111222 
ENP,ioos.station.NOAA.NDBC:BOBF1:1,2019-10-12T15:00:00Z,25.0270,-80.6810,1.5,38.09,11111222 
ENP,ioos.station.NOAA.NDBC:BOBF1:1,2019-10-12T16:00:00Z,25.0270,-80.6810,1.5,37.99,11111222 
ENP,ioos.station.NOAA.NDBC:BOBF1:1,2019-10-12T17:00:00Z,25.0270,-80.6810,1.5,37.74,11111222 
ENP,ioos.station.NOAA.NDBC:BOBF1:1,2019-10-12T18:00:00Z,25.0270,-80.6810,1.5,37.66,11111222 
ENP,ioos.station.NOAA.NDBC:BOBF1:1,2019-10-12T19:00:00Z,25.0270,-80.6810,1.5,37.84,11111222 
ENP,ioos.station.NOAA.NDBC:BOBF1:1,2019-10-12T20:00:00Z,25.0270,-80.6810,1.5,37.93,11111222 
ENP,ioos.station.NOAA.NDBC:BOBF1:1,2019-10-12T21:00:00Z,25.0270,-80.6810,1.5,37.93,11111222 
ENP,ioos.station.NOAA.NDBC:BOBF1:1,2019-10-12T22:00:00Z,25.0270,-80.6810,1.5,38.0,11111222 
ENP,ioos.station.NOAA.NDBC:BOBF1:1,2019-10-12T23:00:00Z,25.0270,-80.6810,1.5,38.06,11111222 
ENP,ioos.station.NOAA.NDBC:BOBF1:1,2019-10-13T00:00:00Z,25.0270,-80.6810,1.5,37.88,11111222 
ENP,ioos.station.NOAA.NDBC:BOBF1:1,2019-10-13T01:00:00Z,25.0270,-80.6810,1.5,37.71,11111222 
ENP,ioos.station.NOAA.NDBC:BOBF1:1,2019-10-13T02:00:00Z,25.0270,-80.6810,1.5,37.82,11111222 
ENP,ioos.station.NOAA.NDBC:BOBF1:1,2019-10-13T04:00:00Z,25.0270,-80.6810,1.5,37.36,11111222 
ENP,ioos.station.NOAA.NDBC:BOBF1:1,2019-10-13T05:00:00Z,25.0270,-80.6810,1.5,37.38,11111222 
ENP,ioos.station.NOAA.NDBC:BOBF1:1,2019-10-13T06:00:00Z,25.0270,-80.6810,1.5,37.41,11111222 
ENP,ioos.station.NOAA.NDBC:BOBF1:1,2019-10-13T07:00:00Z,25.0270,-80.6810,1.5,37.37,11111222 
ENP,ioos.station.NOAA.NDBC:BOBF1:1,2019-10-13T08:00:00Z,25.0270,-80.6810,1.5,37.36,11111222 
ENP,ioos.station.NOAA.NDBC:BOBF1:1,2019-10-13T09:00:00Z,25.0270,-80.6810,1.5,37.68,11111222 
ENP,ioos.station.NOAA.NDBC:BOBF1:1,2019-10-13T10:00:00Z,25.0270,-80.6810,1.5,37.62,11111222 
ENP,ioos.station.NOAA.NDBC:BOBF1:1,2019-10-13T11:00:00Z,25.0270,-80.6810,1.5,37.58,11111222 
ENP,ioos.station.NOAA.NDBC:BOBF1:1,2019-10-13T12:00:00Z,25.0270,-80.6810,1.5,37.55,11111222 
ENP,ioos.station.NOAA.NDBC:BOBF1:1,2019-10-13T13:00:00Z,25.0270,-80.6810,1.5,37.76,11111222 
ENP,ioos.station.NOAA.NDBC:BOBF1:1,2019-10-13T14:00:00Z,25.0270,-80.6810,1.5,37.74,11111222 